This demonstration page uses our WeatherBlox Daily Observations layout. Learn more.

Left ArrowRight Arrow

39.95238, -75.16362

Hourly Observations for January 18, 2023

Temp ( °F °C ) Dew Point ( °F °C ) Humidity (%) Winds ( mph kmh ) Pressure ( in mb ) Visibility ( mi km ) Precip ( " mm )
12:09 am 00:09 Cloudy with Mist and Fog 42 5.6 41 5 96 96 SW 16 26 29.70 1006 1 1 0.01 0.13
12:15 am 00:15 Cloudy with Fog 42 5.6 41 5 96 96 SW 12 19 29.69 1005 1 1 0.01 0.13
12:54 am 00:54 Cloudy with Fog 42 5.6 42 5.6 100 100 SW 8 13 29.68 1005 1 1 0.01 0.13
1:14 am 01:14 Cloudy with Fog 43 6 41 5 93 93 SW 9 15 29.69 1005 1 1 0.00 0.00
1:30 am 01:30 Cloudy with Fog 43 6 43 6 100 100 SW 9 15 29.68 1005 0 0 0.00 0.00
1:54 am 01:54 Cloudy with Fog 43 6.1 43 6.1 100 100 WSW 7 11 29.69 1005 0 0 0.00 0.00
2:10 am 02:10 Cloudy with Mist and Fog 43 6 43 6 100 100 WSW 6 9 29.69 1005 1 1 0.00 0.00
2:40 am 02:40 Cloudy with Mist and Fog 43 6.1 42 5.6 97 97 WSW 9 15 29.70 1006 1 2 0.00 0.00
2:54 am 02:54 Cloudy with Mist and Fog 43 6.1 42 5.6 97 97 SW 13 20 29.70 1006 1 2 0.00 0.00
3:05 am 03:05 Cloudy with Mist and Fog 44 6.7 42 5.6 93 93 SW 10 17 29.70 1006 2 3 0.00 0.00
3:49 am 03:49 Cloudy with Mist and Fog 45 7 43 6 93 93 WSW 13 20 29.71 1006 1 2 0.00 0.00
3:54 am 03:54 Cloudy with Mist and Fog 44 6.7 43 6.1 96 96 WSW 12 19 29.71 1006 1 2 0.00 0.00
4:36 am 04:36 Cloudy with Mist and Fog 43 6.1 42 5.6 97 97 SW 12 19 29.72 1006 1 1 0.00 0.00
4:54 am 04:54 Cloudy with Mist and Fog 43 6.1 42 5.6 97 97 SW 13 20 29.73 1007 1 1 0.00 0.00
5:54 am 05:54 Cloudy with Mist and Fog 44 6.7 43 6.1 96 96 SW 9 15 29.75 1007 1 1 0.00 0.00
6:05 am 06:05 Cloudy with Mist and Fog 44 6.7 43 6.1 96 96 SW 10 17 29.75 1007 1 2 0.00 0.00
6:54 am 06:54 Cloudy with Mist and Fog 43 6.1 43 6.1 100 100 WSW 9 15 29.76 1008 2 2 0.00 0.00
7:08 am 07:08 Cloudy with Fog 43 6.1 43 6.1 100 100 WSW 9 15 29.77 1008 1 1 0.00 0.00
7:16 am 07:16 Cloudy with Fog 43 6.1 43 6.1 100 100 WSW 10 17 29.78 1008 0 0 0.00 0.00
7:31 am 07:31 Cloudy with Fog 43 6.1 43 6.1 100 100 WSW 10 17 29.79 1009 1 1 0.00 0.00
7:37 am 07:37 Cloudy with Mist and Fog 43 6.1 43 6.1 100 100 WSW 12 19 29.79 1009 1 1 0.00 0.00
7:42 am 07:42 Cloudy with Mist and Fog 43 6.1 43 6.1 100 100 WSW 12 19 29.80 1009 2 2 0.00 0.00
7:47 am 07:47 Mostly Cloudy with Mist and Fog 43 6.1 43 6.1 100 100 WSW 12 19 29.81 1010 3 4 0.00 0.00
7:54 am 07:54 Mostly Cloudy with Mist and Fog 43 6.1 43 6.1 100 100 W 8 13 29.80 1009 3 5 0.00 0.00
8:35 am 08:35 Partly Cloudy with Mist and Fog 43 6.1 42 5.6 97 97 WSW 10 17 29.83 1010 5 8 0.00 0.00
8:54 am 08:54 Partly Cloudy 45 7.2 43 6.1 93 93 W 9 15 29.83 1010 7 11 0.00 0.00
9:54 am 09:54 Partly Cloudy 51 10.6 42 5.6 71 71 W 9 15 29.86 1011 10 16 0.00 0.00
10:54 am 10:54 Partly Cloudy 53 11.7 38 3.3 56 56 WNW 17 28 29.85 1011 10 16 0.00 0.00
11:54 am 11:54 Partly Cloudy 54 12.2 36 2.2 50 50 WNW 15 24 29.84 1011 10 16 0.00 0.00
12:54 pm 12:54 Mostly Cloudy 54 12.2 36 2.2 50 50 W 15 24 29.86 1011 10 16 0.00 0.00
1:54 pm 13:54 Mostly Cloudy 54 12.2 36 2.2 50 50 WNW 18 30 29.86 1011 10 16 0.00 0.00
2:54 pm 14:54 Cloudy 54 12.2 36 2.2 50 50 W 18 30 29.89 1012 10 16 0.00 0.00
3:54 pm 15:54 Mostly Cloudy 53 11.7 35 1.7 50 50 WNW 13 20 29.93 1014 10 16 0.00 0.00
4:54 pm 16:54 Mostly Cloudy 51 10.6 35 1.7 54 54 WNW 14 22 29.96 1015 10 16 0.00 0.00
5:54 pm 17:54 Mostly Cloudy 50 10 34 1.1 54 54 W 14 22 30.01 1016 10 16 0.00 0.00
6:54 pm 18:54 Mostly Cloudy 49 9.4 34 1.1 56 56 W 14 22 30.01 1016 10 16 0.00 0.00
7:54 pm 19:54 Partly Cloudy 48 8.9 34 1.1 58 58 W 13 20 30.03 1017 10 16 0.00 0.00
8:54 pm 20:54 Mostly Clear 47 8.3 34 1.1 60 60 WNW 12 19 30.04 1017 10 16 0.00 0.00
9:54 pm 21:54 Partly Cloudy 45 7.2 34 1.1 65 65 W 9 15 30.05 1018 10 16 0.00 0.00
10:54 pm 22:54 Partly Cloudy 45 7.2 34 1.1 65 65 NW 6 9 30.03 1017 10 16 0.00 0.00
11:54 pm 23:54 Mostly Cloudy 42 5.6 33 0.6 70 70 W 3 6 30.04 1017 10 16 0.00 0.00

Powered by AerisWeather